Theta_e
289 289 288 288 287 287 286 286 286 286 286 285 284 284 283 283 283 283 283 282 282 282 281 281 281 281 281 281 280 280 280 280 280 280 280 280 280 280 280 280 279 280 280 280 281 281 281 280 281 281 282 281 281 282 282 282 282 282 282 282 282 283 282 281 280 280 282 285 285 285 287 288 286 288 287 288 288 289 289 290 290 290 290 291 290
288 287 287 287 286 286 285 285 285 285 284 283 283 283 283 282 282 282 281 281 281 280 280 280 280 280 280 279 279 279 279 279 279 279 279 278 278 279 279 278 278 278 279 279 279 280 280 279 280 280 281 280 280 280 280 281 281 280 281 281 281 281 282 281 279 279 278 282 282 285 285 286 284 287 286 286 286 288 287 288 289 289 289 289 290
288 287 286 286 285 285 284 284 284 283 283 283 282 282 281 281 281 280 280 280 280 279 279 279 279 279 278 278 278 278 278 278 278 277 277 277 277 277 278 277 277 277 277 278 278 279 278 279 279 279 280 279 279 279 279 279 280 279 279 280 279 280 281 281 279 278 278 279 282 282 283 284 284 284 286 286 286 286 286 286 287 288 289 289 289
287 286 285 285 284 283 283 283 283 283 282 282 281 281 280 280 280 279 279 279 278 278 278 278 278 278 277 277 277 277 276 276 276 277 276 276 276 276 276 277 277 277 277 277 277 277 277 277 278 278 278 277 277 277 278 279 278 278 278 278 278 278 279 280 280 279 278 278 280 281 282 282 283 284 285 285 285 285 285 286 287 287 288 289 289
285 284 283 282 283 283 282 283 282 282 281 281 280 279 279 279 278 278 278 278 277 277 277 277 277 277 276 276 276 276 275 275 275 275 275 275 275 275 276 276 276 277 277 277 277 277 277 276 276 277 276 276 276 276 277 276 277 277 277 277 277 278 279 279 279 279 278 277 278 280 281 282 282 283 284 283 283 284 285 285 285 286 286 288 288
284 283 282 282 282 282 282 282 281 281 280 279 279 278 278 277 277 277 276 276 276 276 276 276 276 275 275 275 275 274 275 274 274 274 274 275 275 275 276 276 276 276 277 276 276 276 276 276 276 276 276 275 275 276 276 276 276 276 276 277 277 278 277 278 278 278 278 277 278 278 280 280 280 281 283 283 282 282 282 284 285 285 285 285 286
284 284 284 283 283 282 282 281 280 280 279 279 278 277 276 276 276 275 275 275 275 275 275 274 274 274 274 274 273 273 273 273 274 274 274 274 275 276 276 276 276 276 276 276 276 276 276 276 276 276 275 275 275 275 275 275 275 275 276 276 276 276 276 276 276 276 276 276 276 277 277 279 279 278 281 282 282 282 281 281 281 283 285 284 284
284 284 284 283 283 282 281 280 280 279 278 277 276 276 275 275 275 275 274 274 274 273 273 273 273 273 273 273 273 273 273 273 273 273 274 275 275 276 276 276 276 276 276 276 276 276 276 275 275 275 275 275 275 275 274 274 275 274 275 275 275 275 274 275 275 274 274 274 274 275 276 276 277 278 279 280 279 279 281 280 279 280 281 283 284
285 284 284 283 282 281 279 279 279 278 277 276 275 275 274 274 274 274 273 273 273 273 272 272 272 272 272 272 272 272 272 272 272 272 273 274 275 275 275 275 275 275 275 275 275 275 275 275 275 275 275 275 275 275 275 275 274 273 274 274 273 273 273 273 272 272 272 272 272 273 273 273 274 275 275 276 276 276 278 279 278 280 281 281 283
284 284 283 282 281 280 279 278 277 276 276 275 274 274 273 273 273 272 272 272 272 272 272 272 272 271 271 271 271 271 271 272 271 271 274 274 275 274 274 274 275 274 274 274 274 275 274 275 275 275 274 274 274 275 275 275 275 274 273 273 273 272 272 271 271 272 272 271 271 272 271 272 273 274 274 275 277 277 276 277 276 277 278 278 280
284 283 282 280 279 278 278 277 276 275 275 274 273 273 272 272 272 271 271 271 271 270 271 271 271 271 270 270 270 270 271 271 271 273 274 275 274 274 274 274 274 274 273 273 273 273 274 274 274 274 273 273 273 273 274 274 275 275 275 275 275 273 271 271 271 271 271 271 271 271 271 271 272 274 274 274 275 275 275 276 276 276 275 275 274
282 282 280 279 278 277 276 276 275 274 273 272 271 271 270 270 270 270 270 270 270 270 270 270 270 270 270 270 270 270 270 270 272 273 274 274 275 274 274 274 273 273 273 273 273 273 273 272 273 273 272 272 272 272 273 273 274 274 274 274 274 275 275 273 271 270 270 270 270 270 271 271 272 273 273 274 273 274 275 275 275 274 274 274 274
281 280 278 277 276 276 276 275 274 272 272 271 270 269 269 269 269 268 268 269 269 269 269 269 269 269 269 268 268 269 269 270 271 272 273 274 275 275 273 273 273 272 273 273 272 272 271 271 271 271 271 272 272 272 272 272 273 273 273 273 274 274 275 276 276 274 273 271 271 270 271 272 271 272 274 274 275 274 274 274 275 275 275 274 275
280 278 277 276 275 275 274 273 272 271 270 269 269 269 268 268 268 268 268 268 268 268 268 267 268 268 268 267 267 268 268 269 270 272 273 273 274 274 273 273 272 272 272 272 271 271 271 270 270 270 271 271 271 271 271 272 272 271 271 272 272 273 275 276 276 276 276 274 273 271 273 274 272 274 275 276 274 273 273 273 274 274 275 275 277
278 277 276 275 274 274 273 272 271 270 269 268 268 268 268 268 267 268 268 268 267 267 267 267 266 266 266 266 266 266 267 269 270 271 272 273 274 274 272 272 271 271 271 271 271 270 270 270 270 270 270 270 271 272 271 271 271 271 271 271 272 273 274 274 275 275 275 275 274 274 274 275 275 276 276 276 276 275 276 275 276 276 276 277 277
277 276 275 274 273 273 272 271 270 269 269 268 267 268 267 267 267 267 267 267 267 266 266 266 265 265 265 265 265 265 266 268 269 270 271 272 273 271 271 270 270 270 270 270 270 271 271 270 270 270 270 270 272 274 274 273 272 271 271 272 272 273 274 276 277 278 277 276 276 276 276 277 278 277 278 278 278 278 278 278 278 276 275 274 273
276 275 275 274 273 273 272 271 270 269 269 268 267 267 267 266 266 267 266 266 266 266 265 265 265 264 263 263 263 264 265 266 268 269 270 272 271 270 270 269 269 269 269 270 270 270 270 270 270 270 270 271 273 275 275 275 272 272 272 272 273 274 274 276 278 279 279 280 279 280 280 280 280 280 281 281 280 279 277 275 273 274 273 271 272
276 275 275 274 273 272 272 270 269 268 268 267 267 267 267 267 266 265 265 265 265 265 264 264 264 264 263 263 263 263 263 265 268 269 270 271 271 269 269 269 268 268 269 270 270 270 271 271 272 271 271 271 274 275 276 275 273 273 273 273 272 272 273 275 276 276 279 279 280 280 280 280 280 280 281 281 280 280 276 272 274 274 272 272 271
276 275 274 273 272 271 270 269 269 267 267 267 265 265 265 265 265 264 264 264 264 264 264 263 263 263 263 263 263 263 263 264 266 268 269 270 270 270 269 269 268 268 268 268 269 270 270 272 272 273 273 273 276 277 277 276 274 273 273 273 272 272 273 275 275 275 275 276 276 276 277 278 277 277 277 279 279 279 277 275 275 274 272 272 272
276 275 274 272 271 269 268 267 267 266 266 265 264 264 265 264 263 264 264 264 264 264 263 263 261 262 262 262 262 263 263 263 264 267 269 270 271 270 270 269 268 268 268 268 268 269 270 271 272 274 275 276 276 277 277 278 275 274 274 273 273 273 275 275 275 275 275 275 275 276 276 276 276 276 276 277 277 277 277 276 276 275 273 272 272
275 273 272 270 269 268 267 266 265 265 265 264 264 263 264 264 263 262 262 263 262 262 261 261 261 261 262 263 263 263 263 263 263 267 269 270 271 271 270 269 269 269 269 269 269 269 270 271 272 274 276 276 276 277 277 278 278 275 275 274 274 276 277 275 275 276 275 274 274 274 274 275 275 275 275 275 276 276 276 277 276 276 274 272 271
273 271 270 269 267 266 265 265 264 263 262 262 262 262 262 262 262 261 262 262 260 259 260 260 261 261 262 262 262 263 263 264 264 266 269 270 271 272 270 270 271 271 270 270 270 270 271 271 272 274 275 276 276 277 278 278 278 276 276 277 278 278 275 275 274 274 273 273 273 273 273 273 273 273 274 274 274 275 275 275 275 275 275 275 273
271 270 269 267 265 264 263 262 262 261 260 260 260 261 261 260 259 259 259 259 259 259 259 260 260 261 262 263 263 263 263 263 266 266 269 270 271 272 273 272 274 272 270 269 270 271 272 272 272 274 275 276 278 278 278 278 276 275 277 277 277 277 275 273 272 271 271 271 271 270 271 271 271 271 272 273 273 274 273 274 274 274 273 274 274
269 268 266 265 263 262 261 260 260 260 260 260 260 260 260 259 259 260 260 260 261 261 262 262 261 261 261 262 263 264 264 265 267 268 269 271 272 273 273 273 274 272 272 271 271 271 271 272 273 276 277 277 277 276 276 275 274 276 276 276 275 274 271 270 269 269 269 269 268 269 269 270 270 270 271 272 272 272 272 273 272 273 273 273 273
266 265 264 263 262 261 260 260 260 259 259 260 260 260 259 258 260 261 259 260 261 261 261 261 261 261 261 261 263 264 265 266 267 268 270 270 271 272 273 274 274 275 272 272 272 272 274 276 276 276 275 275 275 274 272 272 273 273 273 273 271 269 268 268 267 267 266 266 267 268 268 269 269 270 271 272 272 272 272 272 272 273 273 273 273
265 264 263 262 261 260 259 258 258 258 258 259 260 261 261 260 261 261 261 261 260 260 260 261 260 261 261 262 263 264 265 266 267 268 269 269 270 271 273 274 274 274 274 273 274 274 274 274 274 273 272 271 269 268 268 268 271 271 270 269 267 267 267 266 266 266 265 266 266 266 267 269 269 270 271 271 270 270 270 270 270 271 271 271 271
264 263 261 261 260 259 260 261 260 258 258 259 260 260 260 260 260 260 261 261 260 260 260 260 261 261 262 263 263 265 265 266 267 268 268 268 268 269 270 271 273 273 272 271 271 270 270 269 269 270 269 269 269 268 268 268 266 266 267 267 266 266 266 266 266 265 266 266 266 267 268 268 269 269 269 269 269 270 271 270 270 270 271 271 270
264 262 261 261 261 260 261 260 260 261 260 260 261 260 260 260 260 260 261 261 261 261 261 261 261 262 262 263 264 264 265 266 267 267 267 268 270 271 271 272 271 271 269 270 268 266 266 267 266 265 265 265 265 265 265 265 265 265 265 265 265 266 266 267 267 266 266 266 266 266 266 267 266 267 268 268 268 269 270 270 270 270 270 270 269
263 262 261 261 261 260 261 260 261 262 261 259 260 261 261 261 260 260 260 260 261 261 261 261 262 262 263 263 263 263 265 266 266 269 270 272 271 271 271 271 271 270 270 271 266 265 265 264 264 263 263 263 263 263 264 264 264 264 264 264 265 265 265 265 264 264 265 265 264 265 265 265 265 266 266 267 267 268 270 270 270 270 270 270 269
262 261 260 261 261 260 260 260 260 260 260 261 259 259 260 262 261 260 260 263 265 267 266 262 263 263 263 265 266 265 265 266 270 272 272 272 273 274 273 273 272 270 271 270 266 263 263 262 262 262 262 262 262 262 262 262 263 263 264 265 264 264 264 264 265 265 265 265 265 264 264 265 265 265 266 266 267 268 269 270 269 270 269 269 269
263 262 259 261 261 261 261 260 260 260 260 260 260 260 260 261 265 266 266 266 267 268 269 270 270 270 268 266 267 270 270 271 271 271 272 272 273 273 272 272 271 270 270 266 263 262 261 261 261 262 262 262 261 262 262 262 262 262 262 263 264 264 264 264 265 265 265 264 265 265 265 265 265 266 266 267 267 268 269 270 271 270 270 270 269
264 263 261 261 260 260 261 260 259 259 259 259 259 259 260 261 262 264 265 265 266 267 267 267 268 268 268 268 267 266 268 269 270 271 271 272 272 272 271 270 270 269 268 266 262 261 261 261 261 261 261 261 261 261 261 261 262 262 262 262 263 264 264 264 265 265 264 264 264 265 265 266 266 266 267 267 268 268 269 269 269 270 270 271 270
264 263 261 260 260 260 260 260 260 259 258 258 258 258 259 259 261 262 262 263 263 265 265 266 266 266 267 267 268 268 268 269 270 270 271 271 271 270 270 269 268 268 266 262 261 260 261 261 260 260 260 260 261 261 261 261 261 262 262 262 262 263 264 264 265 264 265 265 266 266 266 266 267 267 267 267 267 267 268 268 269 269 270 270 270
263 262 261 260 261 260 260 260 260 260 259 259 259 258 259 259 259 259 260 260 260 261 263 263 264 265 265 266 267 267 268 268 269 270 271 270 270 269 268 265 266 265 264 260 260 260 260 260 260 260 260 261 261 261 261 261 262 262 262 263 263 264 264 265 265 265 266 266 266 266 266 266 267 266 266 267 267 267 267 268 268 269 269 270 270
261 259 258 259 261 261 261 261 260 259 259 258 258 258 258 258 258 257 258 258 258 258 259 259 261 263 263 264 265 266 267 268 269 269 269 268 268 267 265 262 261 261 261 260 260 260 260 260 260 260 260 260 260 260 260 261 261 262 262 263 263 264 265 265 265 266 267 267 266 266 266 266 266 267 266 266 266 266 267 267 268 269 269 270 271
259 260 259 259 260 261 261 260 260 259 259 258 258 259 259 258 258 258 258 257 257 256 257 258 258 260 263 264 264 265 266 267 268 268 268 267 266 264 260 260 259 260 259 260 260 260 260 260 260 260 260 260 260 261 261 261 261 262 263 263 263 264 264 265 266 267 267 267 266 266 267 266 266 266 266 266 266 266 267 267 268 269 270 270 271
259 260 259 260 260 261 260 259 259 259 259 258 258 258 258 258 258 258 257 257 256 256 257 257 257 258 261 259 260 263 265 266 266 267 266 264 264 260 259 258 258 258 258 259 259 260 259 260 260 260 260 260 260 261 261 261 262 262 263 264 264 265 265 267 267 267 266 266 266 266 266 266 266 266 266 265 266 266 267 267 268 269 269 270 271
259 260 260 259 259 259 258 258 257 257 258 258 258 258 258 257 257 257 256 256 256 256 256 256 257 257 257 259 260 259 260 263 265 265 263 261 259 258 258 258 258 258 258 259 259 259 259 259 260 260 260 260 260 260 261 261 262 263 263 264 265 265 267 267 267 267 266 266 266 266 266 266 266 266 266 265 265 266 266 267 267 268 268 269 270
258 259 259 259 259 258 258 257 257 257 257 257 257 257 256 257 256 256 256 256 256 256 256 256 256 256 257 258 258 259 260 261 261 261 259 258 258 258 258 258 258 258 258 258 258 258 258 259 259 259 260 260 260 260 261 261 262 262 263 264 265 265 266 266 267 267 266 266 266 266 266 266 266 266 266 266 265 266 266 267 267 267 267 268 269
258 258 259 259 259 259 257 257 257 257 257 257 257 256 256 256 256 256 256 255 255 255 255 255 256 256 257 256 256 258 259 260 261 260 258 257 257 257 257 257 257 257 257 257 257 258 258 258 259 259 259 259 260 260 261 261 262 262 263 264 264 265 265 266 267 267 266 266 266 266 265 265 265 266 266 266 266 266 266 266 267 267 268 268 269
258 259 258 259 259 259 257 257 257 257 257 256 257 256 256 256 256 256 256 255 255 255 255 255 256 256 257 257 261 262 261 261 260 258 257 257 257 256 256 257 257 257 257 257 257 257 257 258 258 258 259 259 260 260 260 261 261 262 262 263 264 265 265 266 267 267 267 266 266 265 265 265 265 265 264 265 267 267 266 266 267 267 268 268 269
258 257 258 258 258 259 257 257 257 256 256 256 256 256 255 255 255 255 255 255 255 255 255 256 256 256 257 261 261 263 262 260 258 257 257 256 256 256 256 256 257 257 257 257 257 257 257 257 257 258 258 259 259 259 260 260 261 261 262 263 264 264 265 265 266 267 267 266 266 265 265 265 265 265 265 266 265 265 265 266 266 266 267 268 269
257 257 257 258 258 257 257 257 256 256 255 255 255 255 255 255 255 255 255 255 255 255 255 255 256 256 256 258 259 260 259 257 256 255 255 256 256 256 256 256 257 257 256 256 256 257 257 256 256 257 258 258 258 259 259 260 260 261 262 262 263 264 264 265 266 267 267 267 266 265 265 264 264 264 264 265 265 265 265 265 266 266 267 267 268
256 256 256 256 256 256 256 256 255 255 255 255 254 254 254 255 255 255 255 255 255 255 255 255 255 255 255 256 257 256 256 255 254 255 254 255 255 255 256 256 256 256 256 256 256 256 256 256 256 257 257 257 258 258 259 260 260 261 261 262 263 264 264 265 266 266 267 267 266 265 265 264 264 264 264 264 264 264 264 265 265 265 266 266 267
256 255 255 255 255 255 255 255 254 254 254 254 254 254 254 254 255 255 255 254 254 254 255 255 255 255 255 255 255 254 254 254 254 254 255 255 255 255 255 255 255 255 255 255 256 256 255 256 256 256 256 257 258 258 259 259 260 261 262 262 262 263 264 265 266 266 267 267 266 265 265 264 264 264 264 264 264 264 264 264 265 265 265 266 266
256 255 255 255 254 254 254 254 254 254 254 254 254 254 254 254 254 254 254 254 254 254 254 255 255 254 255 255 255 254 254 254 254 254 254 254 255 255 255 255 255 255 255 255 255 255 255 255 255 255 255 256 256 257 258 258 259 260 261 262 263 264 265 266 266 266 266 267 267 265 264 264 263 264 264 263 264 264 264 264 264 265 265 265 266
255 255 255 255 254 254 254 253 253 253 253 253 253 253 254 254 254 253 253 253 254 254 254 254 254 254 255 254 254 254 254 254 254 254 254 254 254 254 254 254 254 254 254 254 254 255 254 255 255 255 255 255 256 256 257 258 259 260 261 262 263 263 265 265 265 265 266 268 267 265 264 263 263 263 264 263 263 263 263 263 263 263 264 265 265
255 255 255 254 254 254 254 253 253 253 253 252 253 253 253 253 253 253 253 253 253 253 254 254 254 254 254 254 254 253 253 253 254 254 254 254 254 254 253 253 253 253 254 254 254 254 255 255 255 255 255 255 255 256 257 257 258 259 260 261 262 263 263 263 264 265 267 268 268 265 264 263 263 263 263 263 262 263 262 262 263 263 264 264 264
255 255 254 254 254 254 254 253 253 253 253 253 253 253 253 253 253 253 253 253 253 253 253 253 254 254 253 253 253 253 253 253 253 253 253 254 253 253 253 253 252 252 253 253 254 254 254 254 254 254 255 255 255 256 256 257 258 258 259 260 261 261 262 262 264 266 266 267 268 266 264 263 263 262 263 262 263 263 262 262 262 262 263 263 263
255 255 254 254 254 254 254 254 253 253 253 253 253 253 253 253 253 253 253 252 253 253 253 253 253 253 253 253 253 253 253 253 253 253 253 253 253 253 253 253 252 252 252 253 253 254 254 254 253 254 254 254 255 255 256 257 257 258 258 259 260 261 262 264 265 266 267 267 268 266 264 263 262 263 263 263 263 262 262 262 261 262 262 262 262
254 254 254 254 254 254 253 253 253 252 252 252 252 252 252 252 252 252 252 252 252 252 253 253 252 252 252 252 252 252 252 252 253 253 253 252 252 253 253 252 252 252 252 252 253 253 253 254 254 254 254 255 255 256 256 257 257 258 258 259 260 262 264 265 265 266 266 267 268 267 264 263 261 262 263 263 263 263 262 261 261 261 261 262 262
Wind_Speed
8 7 7 8 8 8 7 6 6 5 6 6 6 5 4 4 3 3 2 3 2 2 3 3 3 2 2 3 3 3 3 3 3 3 3 4 4 4 4 5 5 5 5 6 5 5 6 7 7 7 7 7 7 7 7 7 8 8 8 8 9 9 9 10 13 16 14 9 11 12 12 13 15 11 13 12 12 11 10 11 12 12 12 12 12
7 7 6 7 8 8 7 6 5 5 6 5 5 5 4 3 3 2 3 2 2 2 2 2 2 2 2 2 3 3 3 4 4 4 4 5 5 3 4 5 6 6 5 6 6 5 6 8 8 8 7 7 8 8 7 8 8 9 8 8 9 10 9 10 13 14 18 13 12 12 12 10 15 15 13 14 15 13 14 12 11 12 12 12 12
7 7 7 7 8 7 6 6 6 6 6 5 5 4 4 3 2 2 2 2 2 2 2 2 2 2 2 3 3 3 4 4 4 4 5 5 5 5 5 6 6 6 7 7 7 7 7 7 8 7 6 8 8 8 8 8 8 9 10 9 10 11 10 10 11 14 17 17 13 13 12 11 12 14 15 13 15 15 15 15 13 11 10 12 12
8 7 6 7 7 7 6 6 6 6 6 4 5 4 3 3 2 2 2 2 2 2 2 2 2 3 3 3 3 3 4 4 4 4 5 5 5 6 6 6 6 6 7 7 8 7 8 8 8 8 8 9 9 8 8 7 8 9 10 10 10 11 11 10 11 12 14 17 15 12 12 12 11 13 12 13 15 16 14 14 14 13 13 12 13
7 6 6 7 7 7 7 6 6 6 5 4 4 3 3 3 2 2 2 2 2 2 2 2 3 3 3 4 4 4 4 4 5 5 5 5 5 6 6 6 6 7 7 7 7 8 8 8 9 8 8 9 9 8 8 10 9 9 10 10 10 10 10 10 11 11 13 16 17 14 12 13 11 12 12 13 13 15 15 14 13 14 14 13 11
7 7 7 8 7 8 7 6 6 6 5 4 4 3 3 2 2 2 2 2 2 2 2 2 2 3 3 3 3 4 4 4 5 5 5 5 5 6 6 6 7 7 7 7 7 7 8 9 9 8 8 9 9 9 9 10 10 10 11 10 10 10 12 12 11 13 13 15 15 17 14 13 13 11 12 13 13 14 15 15 15 14 14 14 12
7 9 9 9 8 7 6 6 6 5 4 4 3 3 3 2 2 2 2 2 2 2 2 2 2 2 2 2 3 3 4 4 5 5 5 6 6 6 7 7 7 7 7 7 8 8 8 8 8 8 9 9 9 9 10 11 10 11 11 11 11 11 12 11 11 12 13 14 15 15 16 14 12 13 11 12 14 13 14 14 15 13 12 12 14
9 9 9 8 7 7 6 6 5 5 4 3 3 3 3 2 2 2 2 2 2 2 2 1 1 1 2 2 3 3 4 5 5 5 5 6 7 7 7 7 8 8 8 8 8 8 8 8 8 9 9 8 8 10 10 10 10 11 10 10 11 11 11 11 11 11 12 13 13 14 13 14 13 11 11 11 12 11 10 11 13 13 15 14 14
9 9 9 8 7 6 6 6 5 5 4 4 4 3 3 3 2 2 2 2 2 2 1 1 2 2 2 2 3 3 4 4 3 5 6 8 7 8 8 8 9 9 9 9 8 8 8 8 8 8 9 13 17 16 15 14 12 12 11 10 11 11 11 10 10 11 11 12 14 13 13 14 12 12 12 11 11 13 12 12 14 14 14 15 16
10 9 9 8 7 7 7 6 5 5 4 4 3 3 3 2 2 2 1 2 2 2 1 2 1 2 3 3 3 3 3 3 4 9 10 9 10 8 9 9 9 10 10 11 10 9 9 9 9 13 15 16 16 17 17 17 17 14 12 11 11 11 11 11 11 11 11 13 13 12 13 13 12 12 13 12 12 13 14 13 14 13 13 12 13
9 9 8 7 7 7 7 6 5 5 4 3 3 3 3 2 2 1 1 2 1 2 1 1 2 2 3 3 4 3 4 4 9 11 13 14 10 10 9 10 10 10 10 10 11 11 11 10 10 11 12 12 12 14 16 18 17 18 18 18 15 12 11 11 11 12 12 12 12 13 13 15 15 13 13 13 12 13 13 13 13 13 13 12 13
9 8 8 8 7 7 6 6 5 5 4 3 3 3 2 2 1 1 1 1 1 1 1 1 2 3 3 4 4 4 5 7 11 12 14 14 13 10 10 9 9 9 10 10 10 10 11 10 9 8 8 9 11 12 15 16 16 17 17 16 16 17 17 13 13 12 12 13 14 14 14 15 15 13 13 12 12 13 13 14 14 15 15 15 14
9 8 8 8 7 7 6 6 5 5 4 3 3 3 2 2 1 1 0 0 1 1 1 2 2 2 3 4 5 5 6 8 11 13 14 15 15 13 10 10 10 11 11 11 11 10 10 10 10 9 9 14 13 12 11 12 14 16 16 16 16 18 18 20 20 16 14 16 16 16 14 15 15 13 12 13 14 16 15 14 14 14 15 15 14
8 8 8 7 7 7 7 6 5 5 4 3 3 3 2 1 1 1 1 1 2 1 1 2 2 3 3 5 5 6 7 8 12 14 15 15 15 13 10 11 11 11 12 11 10 11 11 11 11 11 11 11 11 12 11 12 12 12 12 12 12 16 20 22 24 25 21 16 16 16 16 14 14 14 15 14 15 14 13 15 15 15 15 16 17
8 8 8 7 7 7 7 6 6 5 4 4 3 3 2 2 2 2 2 2 2 2 2 2 2 3 4 5 6 6 7 11 12 14 15 15 15 14 10 10 10 10 11 11 11 11 11 11 12 12 13 12 11 13 14 14 13 13 13 14 15 15 16 16 16 14 14 14 15 16 16 15 16 16 15 14 15 15 14 16 17 17 18 18 16
8 8 8 8 8 8 7 7 6 5 5 4 4 3 3 3 3 2 2 2 2 2 2 2 3 4 4 5 6 8 7 11 12 13 15 14 16 10 8 9 10 10 11 10 10 10 10 11 12 13 13 14 16 21 19 16 15 14 15 15 15 15 15 16 20 19 18 17 16 16 15 18 21 19 18 16 15 14 15 15 12 13 15 15 14
9 9 8 9 8 8 8 7 6 6 5 5 4 4 4 4 3 3 3 2 2 2 2 3 3 3 5 5 7 8 7 9 11 13 14 15 12 8 8 8 9 10 10 10 10 11 10 11 12 13 15 15 19 22 22 21 15 15 15 14 12 13 14 14 19 23 25 27 28 29 29 29 27 27 26 27 21 18 15 16 15 13 14 15 14
9 10 9 8 9 8 7 7 7 6 5 5 4 4 3 2 3 3 2 2 2 2 2 3 3 3 5 6 6 8 8 9 13 14 15 15 12 9 8 8 9 9 10 10 9 10 12 17 17 16 16 16 21 24 24 21 15 15 15 16 16 15 15 14 14 15 22 25 26 26 26 26 26 26 27 27 27 21 15 16 14 13 14 13 15
10 10 10 9 8 8 6 6 6 6 5 5 4 4 4 4 2 2 2 2 2 2 2 3 3 4 5 6 9 10 9 9 11 13 14 14 11 8 8 8 9 9 9 10 10 10 12 15 20 19 18 19 25 24 25 21 16 15 15 15 15 14 12 14 14 15 15 15 15 16 16 17 16 15 16 23 24 22 17 16 13 13 15 15 16
10 8 8 8 7 6 6 7 6 6 6 5 4 4 3 3 3 2 1 2 2 2 2 3 4 4 5 6 7 7 8 7 8 13 14 14 14 9 8 8 9 10 10 10 11 11 12 13 15 19 21 21 22 24 23 24 18 16 15 14 14 15 13 13 14 14 14 14 12 12 13 13 14 15 15 15 15 16 16 16 15 14 15 15 15
8 8 8 7 7 7 6 6 6 5 5 5 4 4 3 3 2 2 2 2 2 3 3 4 4 5 5 6 6 7 6 8 8 12 14 14 15 12 8 9 9 10 10 10 10 10 9 10 10 16 22 23 22 23 25 27 27 20 15 14 13 15 16 12 12 16 12 11 11 11 11 11 11 11 11 12 12 12 13 14 14 13 14 14 14
8 8 7 7 7 6 6 5 5 5 5 4 4 3 3 2 2 2 2 1 2 4 4 4 4 5 5 6 7 7 7 10 8 11 13 14 14 15 10 9 10 10 11 10 11 12 13 13 12 15 22 24 25 26 28 29 28 14 11 16 22 24 18 14 11 9 9 10 11 11 11 11 11 11 11 12 11 13 12 12 12 13 13 13 14
8 7 7 7 7 7 6 7 6 4 5 4 4 3 3 2 2 2 2 2 3 4 4 4 4 4 4 5 5 6 6 7 11 10 12 14 14 14 16 13 16 12 11 11 12 12 11 12 14 21 24 25 27 27 23 22 16 12 21 24 25 27 22 11 11 11 10 10 10 10 10 10 9 10 10 11 11 12 11 12 13 13 13 14 15
8 10 9 7 7 6 6 6 5 5 5 5 4 3 3 2 1 2 2 2 3 3 3 3 3 4 4 4 4 5 5 6 8 12 11 14 14 14 14 16 17 12 11 11 11 12 12 12 14 24 25 24 22 21 22 21 15 23 25 27 26 21 11 10 9 9 9 8 9 9 9 9 9 10 10 10 11 12 13 13 13 14 15 15 16
13 13 11 8 7 6 6 5 5 4 4 5 4 3 3 3 2 2 3 3 3 3 3 2 3 4 4 4 5 5 6 7 7 9 13 11 12 13 15 16 17 17 12 10 11 11 16 22 24 23 22 23 25 23 18 19 21 21 21 20 16 7 7 7 7 7 8 8 8 9 10 10 10 11 12 12 13 13 13 13 13 13 14 15 16
13 13 10 7 7 7 7 5 4 4 5 4 4 3 3 3 3 2 2 3 2 3 3 2 3 4 4 4 5 7 7 7 8 7 7 9 10 14 17 17 17 16 15 11 15 19 20 21 22 21 19 18 14 11 11 11 17 17 15 14 8 7 7 8 8 8 8 9 9 10 10 10 10 10 12 12 12 12 11 11 11 12 12 13 13
13 10 8 7 6 7 8 6 6 5 4 4 3 3 3 3 3 3 3 3 3 3 3 3 3 3 5 6 7 7 8 8 7 6 6 8 9 10 11 10 13 12 7 7 11 9 11 12 13 16 12 15 14 13 11 12 10 9 8 8 7 7 7 7 8 9 10 9 10 10 10 10 11 12 11 10 11 11 11 12 11 12 12 12 13
11 9 8 7 7 7 6 7 7 5 5 5 4 4 4 4 4 5 4 4 3 3 3 3 4 4 6 6 7 7 7 7 6 7 8 8 8 9 9 8 8 7 6 9 5 6 8 9 9 5 6 7 7 6 7 7 8 9 9 9 8 8 9 12 11 8 8 8 9 10 10 10 11 11 11 11 11 11 11 11 11 12 12 12 12
10 11 7 6 6 6 5 6 5 5 4 4 4 4 4 5 5 4 5 4 4 4 4 5 5 6 6 7 7 7 7 7 7 9 11 14 12 10 9 8 8 6 9 13 6 6 4 5 4 5 6 8 8 8 9 9 9 9 10 9 8 8 8 7 8 8 8 9 9 10 11 11 11 11 11 11 11 11 11 11 12 12 12 12 13
9 7 6 6 6 6 5 5 4 4 4 4 4 3 7 10 7 5 4 8 14 15 12 8 8 7 7 7 6 6 7 8 14 18 17 16 16 17 14 14 12 10 13 13 6 4 4 4 4 5 7 8 8 8 9 9 9 9 9 10 9 8 9 8 8 8 9 9 10 10 11 11 11 11 11 11 12 11 12 13 13 13 13 12 13
7 6 7 7 7 6 6 5 5 4 4 3 3 3 2 5 11 14 12 10 11 12 13 14 14 12 8 6 7 13 14 15 16 15 16 16 16 15 14 12 12 13 12 7 4 3 4 5 5 6 6 7 7 8 8 8 9 9 10 10 9 9 9 8 8 9 10 10 11 10 10 10 11 11 11 12 12 12 12 11 12 12 13 13 13
8 8 7 6 6 5 5 5 5 5 4 4 4 3 2 2 2 8 10 8 8 8 9 9 9 9 9 9 8 7 10 12 13 14 15 15 14 13 13 11 12 11 10 6 2 2 3 4 5 6 7 7 7 7 7 7 8 9 9 10 10 9 9 9 10 11 11 10 10 10 10 11 11 11 11 12 13 12 12 12 11 12 12 13 13
11 7 6 7 7 7 6 6 6 5 5 5 5 5 4 3 2 1 5 7 7 7 5 5 6 7 8 9 10 10 11 11 13 13 13 12 12 12 11 11 10 8 7 3 2 3 3 4 5 6 6 7 7 7 7 7 8 8 8 9 10 10 10 10 11 10 10 9 9 11 11 11 11 12 12 12 12 12 12 12 12 12 12 12 13
11 7 7 8 8 7 6 6 6 5 5 5 5 5 4 4 3 2 2 1 2 4 5 6 6 6 7 8 9 9 10 10 11 11 11 10 11 11 10 7 6 4 4 2 2 3 4 5 5 5 6 6 7 7 7 8 8 8 9 9 9 10 11 11 10 10 9 9 11 11 11 11 11 11 11 11 11 12 12 12 12 12 12 12 12
6 7 11 10 6 7 6 6 6 5 5 5 5 5 5 4 3 4 3 2 3 2 2 1 4 5 5 6 7 8 8 9 9 9 9 9 9 10 7 2 2 2 2 1 2 4 4 5 6 6 6 7 7 7 8 8 8 8 9 9 10 10 11 11 10 9 10 12 11 11 11 12 11 11 11 12 12 12 12 12 12 12 12 13 12
6 6 6 8 6 6 6 5 6 6 6 5 5 4 3 4 3 3 3 3 3 3 4 3 3 7 10 8 6 7 8 8 8 7 7 8 8 8 3 2 2 2 3 3 3 4 5 6 6 6 6 6 6 7 7 8 8 8 9 9 10 11 11 9 9 11 12 11 12 12 12 11 11 12 12 12 13 12 12 13 13 13 13 13 13
7 5 6 6 6 6 5 5 5 6 6 5 5 4 4 3 3 3 3 4 3 3 3 3 3 3 3 2 4 7 8 8 7 6 5 6 7 3 0 1 2 3 3 3 4 5 6 5 6 6 6 7 7 7 7 8 9 9 10 10 10 11 9 9 10 10 11 11 11 12 12 12 12 12 12 12 12 12 12 12 13 14 13 15 16
6 6 6 6 6 5 5 5 5 8 5 5 4 4 4 4 4 4 4 4 4 3 3 3 3 3 2 2 2 3 6 9 8 5 2 3 2 1 1 1 2 3 4 3 4 5 6 6 6 6 7 7 7 7 7 8 8 8 9 9 10 10 13 10 10 10 10 11 11 11 11 12 12 12 12 12 12 12 13 13 13 13 14 14 12
4 5 7 10 8 6 5 5 6 6 5 5 4 5 4 4 4 4 4 3 3 3 3 2 3 3 3 2 2 3 5 4 3 2 2 1 1 1 1 2 2 3 4 4 4 5 5 6 6 6 6 6 7 7 7 8 8 8 9 9 9 9 9 8 9 10 11 12 11 11 11 11 11 11 11 11 11 12 12 13 13 13 13 13 12
6 6 8 12 6 7 5 5 5 5 4 5 5 6 5 5 5 5 4 3 3 4 3 4 4 4 2 1 2 3 4 5 5 3 2 2 1 1 2 2 3 3 4 4 4 4 5 5 6 6 6 6 7 7 7 7 8 8 8 8 9 9 9 9 9 10 11 12 12 11 11 11 11 11 11 10 11 11 12 12 13 13 12 12 13
5 6 7 10 8 6 5 4 4 5 4 4 4 5 5 4 4 3 3 3 3 4 4 4 4 3 3 5 9 10 7 6 5 3 2 2 2 2 2 2 3 3 4 4 4 4 5 6 6 7 7 7 7 7 7 7 7 8 8 9 8 9 9 9 9 10 11 12 12 12 11 11 11 11 11 11 12 12 11 11 12 12 12 12 12
5 5 7 7 8 6 6 5 3 4 5 4 5 5 4 4 4 4 4 4 4 4 4 4 4 3 5 9 10 13 8 4 2 2 3 2 3 2 2 3 3 4 4 4 4 5 6 7 7 6 7 7 7 6 6 7 7 7 8 8 9 9 9 9 9 10 11 11 11 11 12 12 11 11 11 12 11 11 11 11 11 12 12 12 11
5 5 4 4 6 5 4 4 4 5 6 6 5 4 4 4 4 4 4 4 4 4 4 4 2 2 3 5 6 8 5 3 3 4 3 3 3 3 3 3 3 4 4 5 5 6 7 7 7 7 6 7 7 7 7 7 7 8 8 8 9 9 9 9 9 10 11 10 10 10 9 11 11 10 10 10 11 11 11 11 12 11 11 12 11
4 3 2 3 3 3 2 3 4 4 4 3 3 3 5 5 4 4 4 5 5 5 4 3 2 2 2 1 3 3 4 4 4 4 4 4 4 3 3 3 4 4 5 5 5 5 7 7 8 7 7 7 7 7 7 7 7 7 8 8 8 10 9 9 9 10 11 11 11 10 9 9 10 10 10 10 10 11 11 11 11 11 11 11 11
4 4 4 4 3 3 3 3 3 3 2 3 4 5 5 5 5 6 7 5 4 4 4 3 2 2 2 2 3 3 4 5 5 5 5 4 4 4 3 4 4 5 5 5 5 5 6 7 7 7 7 6 6 6 7 7 7 7 7 8 9 9 9 10 9 10 11 11 10 9 8 8 8 10 10 10 10 10 10 10 10 11 11 10 10
4 3 3 3 3 2 2 3 2 3 3 3 3 4 4 5 7 7 5 4 4 4 3 3 3 3 3 3 3 3 4 4 5 5 5 4 4 4 3 3 4 4 5 5 5 5 5 6 7 7 7 7 7 7 6 7 7 7 8 8 9 9 9 9 9 10 11 10 9 7 6 7 7 7 10 10 9 9 10 10 10 9 10 10 10
3 3 3 2 3 2 2 2 3 3 3 3 4 4 4 4 4 4 4 5 4 4 3 3 3 3 3 3 4 4 3 4 5 5 5 5 4 4 3 4 4 5 5 5 5 5 5 6 6 7 8 7 8 8 8 7 6 7 7 7 8 9 8 8 10 10 10 10 9 5 5 6 7 6 9 9 9 9 10 9 9 10 10 9 9
3 3 3 2 3 2 2 3 3 4 4 3 4 4 4 3 4 4 4 4 5 4 4 3 3 3 3 4 3 4 3 4 4 5 5 5 4 3 3 3 4 5 5 5 5 5 5 5 5 6 8 8 7 7 7 7 7 7 7 7 7 8 11 14 11 11 11 11 10 5 5 5 5 6 6 8 9 9 9 9 9 8 8 8 9
3 3 3 3 3 3 2 3 2 3 4 4 4 5 4 4 5 4 4 4 4 4 3 3 3 3 3 4 3 3 3 4 5 5 5 4 4 3 3 4 4 5 5 6 6 5 5 6 6 6 7 8 8 7 8 8 8 7 7 7 9 15 18 20 15 12 15 12 9 6 5 5 5 5 5 5 6 8 8 8 8 9 8 8 8
4 4 4 3 3 4 3 3 3 3 2 3 4 4 4 4 4 4 4 4 3 3 4 4 4 4 3 4 4 4 3 4 4 5 5 5 4 4 4 4 5 5 5 6 6 5 5 5 6 6 7 7 7 7 7 7 7 8 7 8 14 18 19 21 21 20 14 10 11 5 4 5 5 5 4 4 5 6 6 7 7 8 7 7 7
4 4 4 4 4 4 4 5 5 4 4 4 4 4 4 5 5 4 4 4 4 4 3 4 4 4 4 4 3 4 4 5 5 5 5 5 5 4 5 4 5 5 5 5 6 6 6 6 6 6 6 7 7 7 7 7 7 7 10 16 19 20 20 19 13 15 20 16 11 6 4 5 4 5 4 4 4 5 7 7 7 7 6 6 6
Wind_Direction
148 140 137 134 133 132 130 128 124 120 118 117 112 110 110 103 94 97 92 71 58 59 52 45 29 25 21 18 17 6 7 359 353 344 345 342 338 332 327 327 325 319 320 314 312 308 304 302 299 295 297 293 295 298 296 293 292 285 284 283 278 275 274 274 277 285 285 276 277 285 291 297 293 287 289 290 289 287 274 274 278 280 278 274 272
151 144 142 141 143 142 138 133 132 128 124 120 114 115 109 101 107 114 100 82 70 56 53 40 28 17 16 17 16 11 2 360 353 350 346 342 338 338 327 329 322 318 316 314 316 314 308 303 303 305 306 300 300 299 299 299 298 293 289 288 287 286 282 282 282 282 288 292 284 282 284 281 284 291 293 298 297 297 293 286 273 265 267 271 273
153 152 146 145 146 141 138 140 141 138 130 123 118 117 116 117 123 113 100 98 84 64 40 33 18 18 13 16 12 8 2 353 350 346 340 337 331 327 324 320 318 316 315 313 314 312 308 305 306 310 312 308 306 303 304 300 298 296 294 293 290 287 285 280 281 282 286 288 290 289 287 281 273 287 294 297 296 295 292 288 284 279 267 260 263
156 148 145 144 141 143 149 148 147 141 128 118 123 131 137 134 118 107 101 87 82 71 53 26 19 17 15 13 9 1 354 347 339 336 330 326 320 316 315 313 308 305 305 305 309 309 303 303 303 312 310 304 304 305 302 301 303 298 296 294 291 290 289 284 277 279 285 290 290 290 293 291 286 284 288 291 293 295 291 290 288 283 281 274 266
149 147 145 144 151 155 156 154 144 132 121 126 140 142 141 130 113 100 96 94 70 55 40 30 18 15 12 7 355 353 346 335 332 325 321 314 311 308 305 303 301 301 299 297 298 298 299 297 301 305 304 301 299 299 303 302 297 294 292 294 291 291 290 287 285 283 284 284 289 290 293 289 289 288 287 289 290 289 292 289 292 293 289 282 278
157 151 153 152 161 164 159 150 136 126 130 142 151 149 133 125 125 112 94 86 71 58 41 24 15 8 1 357 345 335 330 323 320 316 314 311 306 304 302 300 298 297 295 296 298 297 297 298 299 299 298 297 298 301 300 298 298 293 293 293 295 294 293 291 290 289 287 285 288 295 295 296 299 294 297 295 290 288 288 291 292 289 291 292 287
164 162 164 163 165 168 159 146 132 136 150 156 159 156 140 126 122 107 94 89 74 59 38 33 5 5 342 342 329 327 315 312 313 313 311 309 307 305 307 304 300 299 298 297 296 295 296 297 297 296 294 294 296 299 304 302 298 296 296 296 294 293 292 291 291 289 287 287 287 287 293 296 298 300 303 300 293 287 287 289 290 292 289 292 295
172 170 167 167 168 161 148 134 133 145 146 157 173 161 143 133 119 116 104 94 87 69 35 15 347 340 329 322 320 318 311 309 315 319 317 316 313 310 306 303 300 298 296 294 295 294 292 293 290 291 289 292 299 302 301 298 298 295 294 295 295 295 293 294 296 295 293 292 289 294 295 298 300 297 300 301 295 290 289 294 294 299 300 300 295
173 172 171 170 164 151 139 130 138 147 158 177 179 161 134 119 110 107 93 94 86 66 37 358 334 329 322 318 313 314 309 311 321 328 323 318 316 310 305 302 302 299 297 296 296 294 292 290 289 288 294 292 289 287 286 287 290 291 292 294 296 295 294 295 294 292 290 288 289 290 292 293 295 300 301 298 298 300 303 303 292 288 286 287 290
171 171 173 165 151 147 141 138 151 158 178 186 171 142 120 108 103 92 81 73 75 55 18 348 331 330 325 320 318 304 302 297 302 302 304 306 308 303 301 297 296 295 296 297 295 293 292 291 289 288 288 288 288 288 288 286 283 281 285 290 291 291 291 291 290 290 289 288 288 293 293 292 297 299 298 297 298 299 298 295 293 299 302 303 300
171 169 164 152 149 146 144 152 155 171 181 179 148 124 106 102 92 81 64 63 48 43 354 337 340 327 319 314 309 302 292 287 296 302 306 305 303 299 296 295 293 291 289 289 293 295 293 289 288 290 291 287 285 286 289 289 286 286 285 285 286 288 293 292 290 292 293 290 292 292 292 292 294 298 299 304 303 301 298 299 299 298 296 301 296
165 161 151 151 151 150 149 151 160 170 179 173 140 114 106 102 95 83 41 54 34 12 334 327 323 316 310 306 297 294 289 286 297 303 305 303 299 296 293 291 290 288 288 286 287 288 289 292 292 291 289 290 294 293 290 287 287 287 287 288 288 287 284 283 287 287 285 287 286 286 289 289 293 294 295 296 296 294 292 291 288 286 286 283 281
159 155 152 153 154 152 152 155 161 176 182 155 133 127 119 125 132 150 241 2 307 265 294 316 299 304 301 297 295 290 285 289 298 303 302 300 299 297 291 286 285 284 284 284 282 283 286 291 293 291 290 293 291 284 284 286 289 288 287 285 284 280 276 276 277 278 281 281 283 284 282 287 287 288 290 295 296 292 293 289 289 288 287 284 284
157 152 151 154 154 155 157 155 167 177 169 152 142 140 138 159 149 206 203 238 234 260 270 272 279 291 296 295 292 287 286 287 297 301 301 300 299 296 287 286 283 281 280 282 281 282 284 286 288 288 291 290 285 284 284 289 291 289 286 284 279 275 276 274 274 276 276 276 277 277 279 277 280 284 286 288 288 287 288 286 288 286 285 286 292
153 155 159 158 157 160 160 165 169 168 164 153 150 152 160 165 191 210 209 225 223 239 246 255 268 275 283 285 286 282 276 284 295 300 301 300 297 297 290 286 282 279 279 279 279 279 280 281 282 284 286 286 282 283 287 286 284 283 278 271 267 268 269 272 270 270 271 271 270 272 273 271 272 277 281 280 276 274 274 280 285 287 288 289 284
157 162 164 166 169 168 164 166 167 166 162 159 163 171 171 189 201 205 211 228 220 230 246 243 260 264 275 280 282 277 276 286 297 299 299 299 300 297 289 283 279 278 279 278 280 282 281 281 282 283 282 282 282 283 284 285 283 278 275 268 266 264 264 263 264 267 271 270 268 269 268 267 272 275 276 277 278 279 281 283 282 289 290 289 286
173 172 168 170 172 169 170 165 164 163 163 165 171 179 183 197 205 197 212 223 222 234 247 251 254 268 271 272 277 279 282 288 294 297 298 298 300 291 285 280 278 279 279 281 282 282 281 278 279 281 281 279 281 284 286 287 284 276 268 264 262 266 273 273 272 273 275 275 274 274 276 282 285 284 284 282 281 284 287 287 286 290 286 288 286
178 174 177 171 169 168 168 162 159 164 164 174 170 182 180 197 197 206 215 219 236 234 260 263 253 253 264 269 271 281 282 286 292 294 296 295 293 291 287 280 277 278 282 282 282 281 279 278 273 272 277 282 285 284 285 286 283 282 282 283 280 274 270 269 269 267 271 274 276 278 280 285 287 289 289 287 287 287 284 280 283 284 280 279 284
178 178 177 167 164 159 157 157 161 162 166 168 169 176 186 195 191 192 215 231 242 246 252 262 261 264 259 265 274 275 278 283 286 291 293 293 294 286 283 279 279 280 284 287 284 278 276 273 273 274 278 282 285 288 289 289 285 281 280 278 276 269 268 272 271 278 280 277 275 273 272 273 276 279 279 279 279 278 274 274 276 273 276 277 279
173 163 151 150 152 153 154 155 160 159 160 155 162 180 175 180 193 205 214 246 248 256 256 261 267 267 269 265 266 266 275 280 282 290 292 294 295 292 288 284 283 282 282 277 273 269 272 273 272 277 285 288 290 291 292 290 287 283 280 280 281 283 287 284 277 277 275 278 281 282 285 286 282 278 277 275 276 275 275 274 272 272 273 275 274
151 154 148 150 151 151 154 159 155 152 154 157 163 168 184 184 174 190 226 241 253 276 273 272 270 268 264 265 266 269 265 277 278 287 293 296 296 297 291 285 287 287 280 268 259 263 270 275 279 286 293 297 296 294 292 289 283 284 287 285 284 289 300 301 304 310 308 306 301 296 292 289 286 283 281 279 280 281 281 279 277 275 274 275 276
150 148 153 154 147 144 147 148 145 142 142 149 158 173 173 163 180 198 236 250 269 268 270 273 276 277 276 267 265 266 268 268 280 287 292 294 296 296 294 289 288 290 294 296 296 294 291 292 292 296 296 296 295 293 289 289 295 302 302 307 310 314 316 314 312 308 302 298 293 289 286 283 283 282 281 281 281 282 282 282 280 278 275 274 274
156 154 148 144 145 145 149 148 148 146 148 157 159 167 165 161 186 201 223 252 249 264 263 260 272 278 281 277 271 272 270 264 269 281 290 295 297 297 295 296 299 300 296 291 290 292 295 296 298 296 294 294 294 300 313 324 330 315 312 311 312 312 313 308 302 297 293 292 291 286 284 282 281 285 284 288 289 289 286 283 282 279 275 272 270
146 145 144 145 143 153 146 142 143 152 153 154 160 163 167 154 197 220 212 241 258 259 277 270 277 280 285 290 282 285 281 280 284 295 302 305 305 305 306 304 302 298 295 294 296 296 297 293 286 291 299 309 318 324 321 320 318 317 314 311 311 315 310 303 297 297 296 289 285 282 282 284 288 287 288 292 290 289 288 286 282 278 275 274 271
157 154 156 151 154 148 147 154 154 152 151 157 163 168 166 170 209 204 199 230 239 261 270 272 279 283 286 287 298 299 303 301 298 301 304 305 308 308 309 308 306 304 301 295 291 291 297 304 310 315 317 317 318 321 321 317 316 316 316 318 322 315 315 311 310 304 294 288 285 285 283 283 283 285 287 287 288 287 284 282 279 276 274 270 269
164 167 151 157 156 144 144 145 147 149 156 165 171 176 167 181 204 209 213 226 226 239 261 266 273 278 277 290 299 304 303 305 304 303 301 300 298 294 299 304 300 301 310 319 322 320 318 317 318 321 319 317 317 315 314 317 320 324 327 330 325 322 318 314 307 304 296 295 292 289 289 290 288 289 290 288 283 280 281 282 284 280 278 278 278
157 144 163 156 151 158 161 167 163 159 168 167 172 177 183 191 199 216 213 212 222 231 248 250 265 265 291 300 296 298 300 305 301 300 305 303 292 283 279 275 289 312 335 334 322 322 327 326 316 313 319 321 323 323 322 324 326 325 329 328 323 316 311 305 303 300 298 294 294 294 296 296 295 293 287 286 282 279 278 279 280 279 279 278 277
168 168 160 160 162 169 168 157 160 162 169 171 177 182 191 199 204 211 202 204 212 228 226 237 242 266 285 286 290 291 295 299 298 308 305 294 295 307 303 313 329 329 338 327 348 340 325 320 323 327 319 322 326 328 329 329 327 327 326 323 316 309 306 303 299 291 288 292 292 294 290 292 291 290 291 287 284 282 280 279 278 280 278 278 275
162 147 159 159 162 164 167 160 173 162 156 173 200 202 192 193 205 218 216 210 220 223 239 237 237 244 258 269 281 285 288 297 299 297 298 307 311 307 315 325 326 345 332 335 4 333 319 316 319 329 336 338 339 337 337 335 333 329 324 324 319 317 316 313 309 305 304 302 298 295 294 292 290 289 290 289 286 287 288 286 282 281 281 274 271
160 170 170 173 156 160 165 163 157 162 164 178 183 225 230 225 217 204 220 227 233 237 227 232 234 235 238 238 232 264 291 291 296 301 306 308 307 312 320 323 332 336 330 343 1 325 319 319 327 337 340 340 335 335 333 331 329 327 331 328 324 325 318 311 309 311 309 304 299 296 294 295 292 292 290 289 289 289 288 287 286 282 280 277 275
170 165 169 185 169 159 156 159 165 168 171 173 189 211 234 223 229 235 241 247 252 255 261 269 277 281 283 293 293 286 287 292 296 300 305 306 309 321 326 332 342 340 338 350 340 328 325 331 333 331 331 331 326 326 324 322 324 322 326 328 323 319 321 315 313 312 307 300 296 292 293 292 291 291 291 290 290 290 291 288 287 284 276 273 274
174 176 173 160 151 161 156 157 154 168 170 176 183 182 222 266 232 200 217 237 246 264 275 272 269 271 276 279 285 290 289 288 292 300 303 305 317 325 325 342 343 340 342 357 315 304 320 322 323 328 323 316 314 313 312 311 315 316 317 318 320 321 319 316 314 306 297 292 288 295 299 298 296 295 294 294 295 295 295 295 293 291 285 277 271
168 152 151 152 162 164 164 162 170 169 172 174 179 188 190 199 231 188 172 199 247 272 269 266 272 272 278 281 281 280 284 290 296 299 302 312 324 324 333 347 340 342 349 344 314 317 318 323 312 308 308 307 309 308 307 309 308 309 312 307 308 312 311 294 298 293 284 283 299 307 306 303 301 300 298 298 299 297 298 295 294 290 289 285 280
177 160 158 163 157 164 168 171 170 175 175 176 182 182 194 190 193 227 280 267 199 224 248 272 278 289 286 280 281 283 286 292 295 297 306 324 329 330 341 341 329 339 0 332 325 320 316 310 301 301 301 303 310 315 311 312 312 306 307 305 299 301 299 298 303 301 297 307 315 311 310 308 307 304 303 302 300 299 296 295 294 294 292 288 285
152 170 170 167 158 160 163 168 168 166 166 174 178 187 185 184 182 194 216 250 281 288 287 277 276 277 283 293 286 283 290 293 293 297 318 338 338 346 346 349 346 322 327 313 306 317 312 311 314 315 308 312 312 307 308 306 305 305 302 303 305 303 304 304 297 299 318 325 320 317 313 312 310 308 307 305 305 302 300 299 298 298 297 294 289
160 156 166 174 164 160 165 167 164 167 171 176 181 182 176 176 183 199 208 227 242 263 274 269 285 299 300 291 287 292 296 299 295 302 330 348 350 9 10 346 323 315 316 312 313 314 317 314 310 306 306 301 301 304 304 303 299 300 300 299 299 299 299 297 313 330 331 327 324 319 318 314 313 311 309 305 302 301 302 302 301 303 303 301 296
167 161 159 170 161 163 160 158 164 168 168 160 169 174 184 186 190 196 213 221 229 240 257 280 293 288 268 251 296 306 307 307 300 305 342 351 3 27 16 314 301 303 298 303 311 311 309 305 303 300 304 304 304 299 299 298 296 295 295 298 296 295 297 312 330 334 333 332 329 327 323 319 316 313 313 310 308 306 304 304 305 304 304 304 304
176 167 165 145 147 147 153 164 167 169 168 167 171 180 182 188 194 205 213 220 222 230 243 251 261 266 275 271 343 305 313 310 300 288 317 355 12 350 311 283 276 278 283 287 288 290 288 297 299 298 301 297 294 296 295 296 298 299 301 302 305 304 313 324 330 334 334 335 332 330 328 323 320 316 315 312 310 309 309 310 309 308 307 307 308
174 159 152 154 163 161 163 157 167 176 174 170 176 182 189 194 202 209 214 215 215 229 233 238 245 247 252 273 298 305 308 281 260 264 278 290 292 291 288 284 274 273 274 278 281 283 287 291 298 296 291 291 292 291 293 296 298 298 300 303 309 313 317 327 332 336 337 337 333 331 329 324 321 318 315 311 309 309 310 310 310 309 307 308 308
159 159 172 169 172 176 165 168 173 175 172 170 184 195 196 200 202 206 207 205 216 220 222 223 228 234 242 253 270 274 264 266 262 270 277 276 265 260 267 271 275 278 284 286 287 286 289 290 297 296 294 291 291 294 293 296 298 299 300 303 311 314 317 324 331 333 336 335 331 330 327 326 323 319 316 314 313 312 311 310 309 309 309 308 308
152 152 159 178 177 168 168 173 180 185 175 181 182 190 201 198 202 203 205 212 223 226 229 226 228 235 233 245 256 258 265 267 266 257 253 257 260 250 258 262 270 275 275 278 281 287 286 291 292 291 291 290 293 294 295 296 297 299 301 302 304 310 313 317 325 330 334 333 330 328 329 326 323 321 318 317 317 316 313 312 311 311 311 310 311
150 141 166 173 176 175 172 181 182 177 184 189 194 196 192 196 201 203 207 214 222 227 233 232 229 218 236 256 264 268 271 263 260 260 254 243 249 249 251 257 259 261 271 275 279 283 286 282 282 284 286 289 294 293 295 294 294 296 299 303 305 307 309 312 322 328 330 330 329 330 328 323 322 321 318 317 317 317 316 316 316 315 315 317 316
141 155 165 166 174 180 176 171 163 183 195 202 205 199 202 203 205 207 216 221 226 226 232 236 234 213 229 250 269 279 277 265 259 258 251 247 243 249 249 252 254 256 258 266 268 272 277 276 275 277 278 284 288 288 289 291 293 294 294 298 302 302 305 307 315 324 326 323 326 322 318 324 324 322 320 319 320 320 318 319 320 319 317 315 317
152 151 157 168 162 152 154 151 169 192 200 193 185 198 210 211 214 218 220 224 226 227 232 238 239 238 239 235 241 250 247 251 245 245 242 245 243 239 248 250 254 256 260 257 257 259 271 272 273 278 278 279 278 279 280 280 285 286 290 292 295 297 301 306 312 319 321 317 320 323 317 320 322 322 319 319 319 321 322 323 322 321 320 319 321
149 155 159 163 167 173 178 178 183 187 189 195 212 220 219 217 222 225 227 227 224 228 233 235 237 242 244 229 213 218 229 235 242 243 242 239 241 241 244 249 250 252 255 258 252 256 268 269 271 276 279 277 277 281 283 283 281 281 282 288 289 292 295 303 307 315 312 308 311 320 315 318 321 325 324 323 321 319 319 320 320 319 322 323 326
147 151 158 164 166 177 178 178 184 194 201 208 213 216 217 221 225 226 225 224 225 226 230 230 234 237 242 241 233 226 237 239 244 243 244 241 239 239 238 246 251 256 259 260 259 253 258 270 274 276 278 281 284 284 283 278 279 278 280 278 282 285 289 296 305 311 306 300 305 311 309 310 311 314 321 320 320 318 316 314 314 318 319 320 323
142 157 158 170 175 177 177 177 195 212 215 227 228 227 224 221 219 221 226 228 228 226 228 228 227 232 232 234 233 236 235 243 247 250 245 242 242 245 248 249 257 262 263 262 259 260 259 260 267 274 276 277 282 279 277 277 279 281 281 281 281 288 293 304 309 304 302 307 305 303 307 305 308 314 327 328 322 321 318 315 317 318 317 320 322
159 161 169 169 170 178 182 189 211 220 230 228 230 229 230 228 225 223 225 221 225 226 227 223 226 231 233 242 240 239 238 247 257 256 258 254 246 238 243 250 258 263 272 270 267 261 263 269 267 273 277 276 273 278 279 280 281 279 280 283 284 284 294 300 300 300 308 315 306 292 290 296 306 311 321 328 324 323 321 322 322 321 321 324 326
169 162 165 179 198 192 190 199 206 218 225 227 228 233 230 228 228 227 224 224 224 224 224 226 227 227 231 239 240 244 243 256 260 263 260 258 256 256 254 252 255 260 270 273 273 270 268 269 264 269 271 277 276 276 280 284 281 279 277 277 282 290 299 302 303 302 307 308 304 294 287 287 292 295 303 313 320 326 325 321 320 321 324 329 330
185 191 192 192 208 217 219 221 219 229 235 237 237 241 234 233 234 232 228 225 229 228 229 227 231 229 227 235 232 237 234 239 246 255 259 261 260 262 263 259 258 258 261 264 268 272 275 272 267 267 267 266 269 272 272 271 271 275 275 277 290 297 298 300 304 305 309 315 310 283 277 291 296 296 306 312 314 314 321 325 325 323 319 320 325
190 194 203 205 209 215 216 227 236 227 223 232 235 240 240 238 239 235 230 227 229 231 226 226 230 229 230 231 232 238 239 241 246 253 258 260 258 256 256 258 261 260 262 258 263 262 262 263 269 270 270 270 270 270 271 271 272 270 279 288 291 293 297 302 303 306 312 314 310 293 272 296 291 296 305 324 325 322 323 320 320 322 324 326 325